{"data":{"norad_id":56322,"epoch":"2026-05-24T23:21:38.552832Z","epoch_age_seconds":77227,"freshness":"FRESH","line1":"1 56322U 23058F   26144.97336288 -.00007496  00000+0 -51548-3 0  9992","line2":"2 56322  97.4480 144.9532 0001581  71.8765 288.2634 15.05687182169258","mean_motion":15.05687182,"eccentricity":0.0001581,"inclination_deg":97.448,"raan_deg":144.9532,"arg_perigee_deg":71.8765,"mean_anomaly_deg":288.2634,"bstar":-0.00051548,"rev_number":16925,"period_min":95.637395151844,"perigee_km":548.30186114554,"apogee_km":550.49234742932,"semimajor_km":6927.5341042874,"source":"CELESTRAK","updated_at":"2026-05-25T13:38:18.000626Z"}}